#timestamp,LO_Frequency,Hit,StdDev 
1506438015.4,286046998.7,N
1506438035.3,286046997.2,N
1506438055.1,286046997.8,N
1506438075.8,286046997.5,N
1506438095.7,286046997.8,N
1506438115.5,286047003.8,N
1506438135.3,286047000.0,N
1506438155.2,286047001.6,N
1506438175.9,286047002.2,N
1506438195.7,286047000.5,N
1506438215.6,286046999.1,N
1506438235.4,286046998.7,N
1506438255.2,286046996.8,N
1506438275.0,286046998.0,N
1506438276.0,286046998.0,N
1506438295.8,286046994.8,N
1506438315.6,286046996.3,N
1506438335.4,286046994.3,N
1506438355.3,286046994.1,N
1506438375.1,286046996.2,N
1506438395.8,286046997.0,N
1506438415.7,286047000.3,N
1506438435.5,286047000.6,N
1506438455.3,286046998.1,N
1506438475.2,286047002.0,N
1506438495.9,286047004.1,N
1506438515.7,286047002.2,N
1506438535.6,286047000.6,N
1506438555.4,286047001.6,N
1506438575.2,286047000.3,N
1506438595.1,286047001.1,N
1506438596.0,286047001.1,N
1506438615.8,286046998.3,N
1506438635.6,286046997.0,N
1506438655.4,286046999.1,N
1506438675.3,286046998.8,N
1506438695.1,286046998.3,N
1506438715.8,286046998.7,N
1506438735.7,286046999.4,N
1506438755.5,286046997.0,N
1506438775.3,286046998.2,N
1506438795.2,286046998.5,N
1506438815.9,286047000.4,N
1506438835.7,286047002.5,N
1506438855.6,286047001.8,N
1506438875.4,286047004.2,N
1506438895.2,286047001.4,N
1506438915.1,286047003.0,N
1506438916.0,286047003.0,N
1506438935.8,286047005.4,N
1506438955.6,286047008.8,Y
1506438975.5,286047010.3,P
1506438995.3,286047012.5,N
1506439015.1,286047011.0,N
1506439035.9,286047013.0,N
1506439055.7,286047014.8,Y
1506439075.5,286047003.4,P
1506439095.4,286047000.5,N
1506439115.2,286047000.6,N
1506439135.0,286047000.8,N
1506439135.9,286047000.8,N
1506439155.7,286046998.6,N
1506439175.6,286047000.3,N
1506439195.4,286047004.3,N
1506439215.2,286047014.1,Y
1506439235.1,286047019.7,P
1506439236.0,286047019.7,N
1506439255.8,286047021.5,N
1506439275.6,286047018.9,N
1506439295.5,286047017.3,N
1506439315.3,286047016.5,N
1506439335.1,286047011.3,N
1506439355.9,286047012.3,N
1506439375.7,286047009.1,N
1506439395.5,286047007.0,N
1506439415.4,286047008.8,N
1506439435.2,286047008.3,N
1506439455.0,286047009.2,N
1506439455.9,286047009.2,N
1506439475.8,286047004.9,N
1506439495.6,286047010.6,N
1506439515.4,286047010.7,N
1506439535.3,286047010.2,N
1506439555.1,286047010.6,N
1506439556.0,286047010.6,N
1506439575.8,286047010.5,N
1506439595.7,286047017.8,Y
1506439615.5,286047004.2,P
1506439635.3,286047000.8,N
1506439655.1,286047001.0,N
1506439675.9,286047005.4,N
1506439695.7,286047005.1,N
1506439715.5,286047007.7,N
1506439735.4,286047009.7,N
1506439755.2,286047007.7,N
1506439775.0,286047009.4,N
1506439775.9,286047009.4,N
1506439795.8,286047011.8,Y
1506439815.6,286047006.0,P
1506439835.4,286047004.6,P
1506439855.3,286047004.1,P
1506439875.1,286047001.6,N
1506439895.8,286047001.3,N
1506439915.7,286047003.8,N
1506439935.5,286047001.7,N
1506439955.3,286047000.6,N
1506439975.2,286046999.0,N
1506439995.9,286046995.2,N
1506440015.4,286046997.8,N
1506440035.2,286046994.7,N
1506440055.0,286046996.3,N
1506440055.9,286046996.3,N
1506440075.8,286046996.9,N
1506440095.6,286046997.7,N
1506440115.4,286046995.8,N
1506440135.3,286046995.6,N
1506440155.1,286046993.7,N
1506440156.0,286046993.7,N
1506440175.8,286046993.6,N
1506440195.7,286046996.4,N
1506440215.5,286046992.9,N
1506440235.3,286046990.4,N
1506440255.2,286046988.5,N
1506440275.9,286046989.1,N
1506440295.7,286046988.6,N
1506440315.5,286046994.5,N
1506440335.4,286047003.9,N
1506440355.2,286047001.2,N
1506440375.0,286046999.0,N
1506440375.9,286046999.0,N
1506440395.8,286046996.6,N
1506440415.6,286046996.8,N
1506440435.4,286046997.7,N
1506440455.3,286046998.3,N
1506440475.1,286046995.0,N
1506440476.0,286046995.0,N
1506440495.8,286047001.1,N
1506440515.7,286046999.8,N
1506440535.5,286047002.2,N
1506440555.3,286047002.9,N
1506440575.2,286047007.6,N
1506440595.9,286047008.5,N
1506440615.7,286047010.1,N
1506440635.5,286047007.7,N
1506440655.4,286047008.7,N
1506440675.2,286047005.4,N
1506440695.0,286047004.3,N
1506440695.9,286047004.3,N
1506440715.8,286047004.1,N
1506440735.6,286047004.1,N
1506440755.4,286047002.5,N
1506440775.3,286047000.4,N
1506440795.1,286046996.6,N
1506440815.8,286046996.2,N
1506440835.7,286046994.7,N
1506440855.5,286046990.4,N
1506440875.3,286046991.6,N
1506440895.2,286046996.2,N
1506440915.9,286046997.9,N
1506440935.7,286046993.9,N
1506440955.6,286046993.3,N
1506440975.4,286046990.6,N
1506440995.2,286046990.1,N
1506441015.0,286046997.7,N
1506441016.0,286046997.7,N
1506441035.8,286046996.8,N
1506441055.6,286046999.3,N
1506441075.4,286046998.9,N
1506441095.3,286046997.2,N
1506441115.1,286046997.9,N
1506441135.8,286046994.9,N
1506441155.7,286046995.9,N
1506441175.5,286046995.2,N
1506441195.3,286046995.1,N
1506441215.2,286046994.5,N
1506441235.9,286046988.2,N
1506441255.7,286046995.8,N
1506441275.6,286046998.8,N
1506441295.4,286047002.7,N
1506441315.2,286047001.3,N
1506441335.1,286047007.2,N
1506441336.0,286047007.2,N
1506441355.8,286047005.0,N
1506441375.6,286047006.6,N
1506441395.5,286047008.9,N
1506441415.3,286047008.8,N
1506441435.1,286047006.2,N
1506441455.8,286047004.8,N
1506441475.7,286047005.2,N
1506441495.5,286047006.4,N
1506441515.3,286047012.3,N
1506441535.2,286047013.9,N
1506441555.9,286047009.5,N
1506441575.7,286047007.0,N
1506441595.6,286047011.9,N
